Location: Christian Reformed Church
(43.0975°N, 93.8113°W)
Time: 04:27:09
(UTC+00:00)

SMAP - Pass Details

Date: 13 December 2025
Orbit: 681 x 683 km, 98.1° (Epoch: 13 January)

Event Time Altitude Azimuth Distance (km) Brightness Sun altitude
Rises 23:45:00 0° 169° (S) 3,031 6.5 -11.4°
Reaches altitude 10° 23:47:14 10° 171° (S) 2,120 5.8 -11.7°
Maximum altitude 23:51:52 75° 257° (WSW) 710 3.3 -12.5°
Drops below altitude 10° 23:56:33 10° 344° (NNW) 2,136 5.6 -13.3°
Sets 23:58:48 0° 346° (NNW) 3,056 6.4 -13.7°
